Weather History for KSBN - December, 2010

Change the Weather History Date:

Friday, December 10, 2010

  Actual Average Record
Temperature  
Mean Temperature 31 °F 30 °F  
Max Temperature 36 °F 37 °F 64 °F (1971)
Min Temperature 26 °F 24 °F -10 °F (1958)
Degree Days  
Heating Degree Days 34 35  
Month to date heating degree days 404 331  
Since 1 July heating degree days 1562 1600  
Cooling Degree Days 0 0  
Month to date cooling degree days 0 0  
Year to date cooling degree days 1022 773  
Moisture  
Dew Point 26 °F    
Average Humidity 84    
Maximum Humidity 92    
Minimum Humidity 75    
Precipitation  
Precipitation 0.04 in 0.09 in 1.39 in (1971)
Month to date precipitation 0.91  
Year to date precipitation 36.30  
Snow  
Snow 0.60 in 0.60 in 5.80 in (1997)
Month to date snowfall 14.3 4.4  
Since 1 July snowfall 15.6 9.6  
Snow Depth 4.00 in    
Sea Level Pressure  
Sea Level Pressure 29.99 in    
Wind  
Wind Speed 11 mph (SSW)    
Max Wind Speed 20 mph    
Max Gust Speed 24 mph    
Visibility 5 miles    
Events Snow    
T = Trace of Precipitation, MM = Missing Value Source: NWS Daily Summary

Daily Weather History Graph

Daily Weather History Graph

Search for Another Location

Airport or City:

Trip Planner

Search our weather history database for the weather conditions in past years. The results will help you decide how hot, cold, wet, or windy it might be!

Date:

Astronomy

Dec. 10, 2010 Rise Set
Actual Time 8:01 AM EST 5:14 PM EST
Civil Twilight 7:30 AM EST 5:46 PM EST
Nautical Twilight 6:55 AM EST 6:21 PM EST
Astronomical Twilight 6:21 AM EST 6:54 PM EST
Moon 11:26 AM EST (12/10) 10:22 PM EST (12/10)
Length of Visible Light 10h 16m
Length of Day
9h 13m
Waxing Crescent, 24% of the Moon is Illuminated
Dec 10
Waxing Crescent
Dec 13
First Quarter
Dec 21
Full
Dec 27
Last Quarter
Jan 4
New

Hourly Weather History & Observations

Time (EST) Temp. Windchill Dew Point Humidity Pressure Visibility Wind Dir Wind Speed Gust Speed Precip Events Conditions
12:25 AM 26.6 °F 15.7 °F 23.0 °F 86% 29.99 in 1.2 mi South 12.7 mph - 0.01 in Snow Light Snow
12:31 AM 26.6 °F 15.7 °F 23.0 °F 86% 29.99 in 1.2 mi South 12.7 mph - 0.01 in Snow Light Snow
12:46 AM 26.6 °F 16.2 °F 24.8 °F 93% 29.98 in 0.8 mi South 11.5 mph - 0.02 in Snow Light Snow
12:54 AM 26.1 °F 15.0 °F 24.1 °F 92% 30.01 in 0.8 mi South 12.7 mph - 0.02 in Snow Light Snow
1:27 AM 26.6 °F 15.7 °F 24.8 °F 93% 29.96 in 1.0 mi South 12.7 mph - 0.01 in Snow Light Snow
1:54 AM 27.0 °F 16.7 °F 25.0 °F 92% 29.99 in 1.5 mi South 11.5 mph - 0.02 in Snow Light Snow
2:04 AM 26.6 °F 15.2 °F 24.8 °F 93% 29.96 in 2.0 mi South 13.8 mph - 0.01 in Snow Light Snow
2:11 AM 28.4 °F 17.5 °F 24.8 °F 86% 29.95 in 4.0 mi South 13.8 mph - 0.01 in Snow Light Snow
2:17 AM 28.4 °F 17.5 °F 24.8 °F 86% 29.95 in 5.0 mi South 13.8 mph - 0.01 in Snow Light Snow
2:54 AM 28.0 °F 17.0 °F 25.0 °F 88% 29.98 in 9.0 mi South 13.8 mph - 0.01 in   Overcast
3:09 AM 28.4 °F 18.0 °F 24.8 °F 86% 29.94 in 8.0 mi South 12.7 mph - N/A   Overcast
3:54 AM 28.9 °F 19.8 °F 25.0 °F 85% 29.96 in 8.0 mi South 10.4 mph - N/A   Overcast
4:54 AM 30.0 °F 20.0 °F 25.0 °F 82% 29.94 in 9.0 mi South 12.7 mph - N/A   Overcast
5:54 AM 30.0 °F 20.5 °F 26.1 °F 85% 29.94 in 9.0 mi South 11.5 mph - N/A   Overcast
6:54 AM 30.9 °F 21.2 °F 25.0 °F 79% 29.94 in 10.0 mi SSW 12.7 mph - N/A   Overcast
7:54 AM 30.0 °F 21.1 °F 24.1 °F 79% 29.95 in 9.0 mi SSW 10.4 mph - N/A   Mostly Cloudy
8:54 AM 30.0 °F 20.0 °F 24.1 °F 79% 29.96 in 7.0 mi SSW 12.7 mph - N/A   Clear
9:54 AM 30.0 °F 19.5 °F 25.0 °F 82% 29.96 in 6.0 mi SSW 13.8 mph - N/A   Haze
10:54 AM 30.9 °F 19.8 °F 26.1 °F 82% 29.99 in 6.0 mi SW 16.1 mph 23.0 mph N/A   Haze
11:54 AM 33.1 °F 23.9 °F 27.0 °F 78% 29.98 in 6.0 mi SW 12.7 mph - N/A   Haze
12:54 PM 33.1 °F 23.4 °F 27.0 °F 78% 29.99 in 6.0 mi SSW 13.8 mph - N/A   Haze
1:54 PM 35.1 °F 27.4 °F 28.0 °F 76% 29.99 in 7.0 mi SW 10.4 mph - N/A   Clear
2:54 PM 36.0 °F 29.0 °F 28.0 °F 73% 29.99 in 7.0 mi SW 9.2 mph - N/A   Clear
3:54 PM 36.0 °F 28.0 °F 28.0 °F 73% 30.00 in 7.0 mi SSW 11.5 mph - N/A   Clear
4:54 PM 35.1 °F 27.4 °F 28.0 °F 76% 30.01 in 7.0 mi SSW 10.4 mph - N/A   Clear
5:54 PM 32.0 °F 24.2 °F 27.0 °F 82% 30.03 in 7.0 mi SW 9.2 mph - N/A   Clear
6:54 PM 30.9 °F 22.8 °F 26.1 °F 82% 30.05 in 6.0 mi SW 9.2 mph - N/A   Haze
7:54 PM 30.0 °F 21.1 °F 26.1 °F 85% 30.06 in 5.0 mi SSW 10.4 mph - N/A   Clear
8:54 PM 30.0 °F 21.7 °F 27.0 °F 88% 30.05 in 5.0 mi SSW 9.2 mph - N/A   Clear
9:54 PM 30.0 °F 21.7 °F 27.0 °F 88% 30.05 in 4.0 mi SSW 9.2 mph - N/A   Clear
10:54 PM 28.0 °F 19.3 °F 26.1 °F 92% 30.04 in 3.0 mi South 9.2 mph - N/A   Clear
11:54 PM 28.9 °F - 26.1 °F 89% 30.05 in 4.0 mi Calm Calm - N/A   Clear